"TOA5","AWS1","CR1000","7964","CR1000.Std.14","CPU:AWS1_114.CR1","64363","TBL110"
"TIMESTAMP","RECORD","Wind_spd_WVc(1)","Wind_spd_WVc(2)","Air_Temp_Avg","Humidity_Avg","SW_upper_Wm2_Avg","Rain_Tot","Press_Avg","Issui_Tot","Depth_cm","SR50A_Raw","Quality","Ground_Temp_Avg(1)","Ground_Temp_Avg(2)","SW_lower_Wm2_Avg","Albedo_Avg","SWC_per(1)","SWC_per(2)","Period(1)","Period(2)"
"TS","RN","","","","","","","","","","","","","","","","","","",""
"","","WVc","WVc","Avg","Avg","Avg","Tot","Avg","Tot","Smp","Smp","Smp","Avg","Avg","Avg","Avg","Smp","Smp","Smp","Smp"
"2016-08-15 00:00:00",248749,0.092,176.3,17.6,100,0,0,860.3739,0,-3.246,3.113,222,23.04,22.42,0.3448482,0,42.7,50.83,31.43,33.5
"2016-08-15 00:10:00",248750,0,0,17.74,100,0,0,860.3613,0,-3.373,3.114,224,23.06,22.41,0.4699031,0,42.65,50.83,31.41,33.5
"2016-08-15 00:20:00",248751,0,0,17.75,100,0,0,860.3339,0,-3.301,3.114,222,22.93,22.41,0.4661135,0,42.65,50.83,31.41,33.5
"2016-08-15 00:30:00",248752,0,0,17.62,100,0,0,860.3297,0,-3.349,3.114,217,22.97,22.41,0.4585344,0,42.65,50.83,31.41,33.5
"2016-08-15 00:40:00",248753,0,0,17.98,100,0.08646623,0,860.3297,0,-3.445,3.114,232,22.88,22.41,0.784435,1.318,42.65,50.83,31.41,33.5
"2016-08-15 00:50:00",248754,0,0,18.14,100,0.1847233,0,860.3297,0,-3.272,3.11,245,22.85,22.41,0.924648,2.619,42.65,50.83,31.41,33.5
"2016-08-15 01:00:00",248755,0,0,18.47,100,0.153281,0,860.3297,0,-1.555,3.092,410,22.87,22.41,1.07623,3.005,42.65,50.83,31.41,33.5
"2016-08-15 01:10:00",248756,0,0,18.15,100,0,0,860.2728,0,-3.08,3.11,241,22.77,22.41,0.3486378,0,42.65,50.83,31.41,33.5
"2016-08-15 01:20:00",248757,0.162,176,17.96,100,0,0,860.0853,0,-3.183,3.111,239,22.76,22.41,0.2273725,0,42.7,50.83,31.43,33.5
"2016-08-15 01:30:00",248758,0,0,18.14,100,0,0,859.8516,0,-3.383,3.112,211,22.73,22.36,0.2273725,0,42.7,50.77,31.43,33.49
"2016-08-15 01:40:00",248759,0,0,18.25,100,0,0,859.8242,0,-3.844,3.116,206,22.69,22.33,0.2576888,0,42.65,50.77,31.41,33.49
"2016-08-15 01:50:00",248760,0,0,18.03,100,0,0,859.8242,0,-3.239,3.112,222,22.67,22.33,0.2463202,0,42.65,50.77,31.41,33.49
"2016-08-15 02:00:00",248761,0.024,176.5,18,100,0,0,859.8242,0,-3.183,3.111,228,22.67,22.33,0.420639,0,42.65,50.77,31.41,33.49
"2016-08-15 02:10:00",248762,0,0,18.06,100,0,0,859.8242,0,-3.437,3.113,205,22.63,22.34,0.3637959,0,42.7,50.77,31.43,33.49
"2016-08-15 02:20:00",248763,0.082,176.5,17.93,100,0,0,859.7883,0,-3.421,3.114,201,22.59,22.36,0.2273725,0,42.65,50.77,31.41,33.49
"2016-08-15 02:30:00",248764,0.116,177.5,17.87,100,0,0,859.5735,0,-2.929,3.109,221,22.6,22.39,0.2197934,0,42.7,50.77,31.43,33.49
"2016-08-15 02:40:00",248765,0,0,18.13,100,0,0,859.5714,0,-3.096,3.109,211,22.62,22.4,0.4699031,0,42.65,50.77,31.41,33.49
"2016-08-15 02:50:00",248766,0.037,277.9,18,100,0,0,859.5714,0,-2.762,3.106,226,22.52,22.4,0.3524273,0,42.7,50.77,31.43,33.49
"2016-08-15 03:00:00",248767,0.018,278,18.28,100,0.2829804,0,859.6409,0,-2.906,3.106,228,22.5,22.35,0.8678049,2.394,42.7,50.77,31.43,33.49
"2016-08-15 03:10:00",248768,0,0,18.2,100,0,0,859.5756,0,-2.794,3.107,233,22.48,22.34,0.3979018,0,42.65,50.77,31.41,33.49
"2016-08-15 03:20:00",248769,0,0,18.09,100,0,0,859.5229,0,-3.072,3.109,212,22.45,22.33,0.231162,0,42.7,50.77,31.43,33.49
"2016-08-15 03:30:00",248770,0.038,49.43,18.15,100,0,0,859.5504,0,-3.017,3.108,200,22.41,22.32,0.5153776,0,42.7,50.77,31.43,33.49
"2016-08-15 03:40:00",248771,0.005,35.58,18.3,100,0,0,859.5735,0,-3.121,3.109,199,22.41,22.27,0.4699031,0,42.7,50.77,31.43,33.49
"2016-08-15 03:50:00",248772,0.014,22.06,18.28,100,0,0,859.5714,0,-3.168,3.109,200,22.38,22.24,0.2160038,0,42.65,50.77,31.41,33.49
"2016-08-15 04:00:00",248773,0.132,119.1,18.19,100,0,0,859.5756,0,-3.024,3.109,203,22.39,22.24,0.1477921,0,42.65,50.77,31.41,33.49
"2016-08-15 04:10:00",248774,0.157,141.9,17.92,100,0,0,859.4303,0,-3.032,3.11,197,22.34,22.27,0,0,42.7,50.77,31.43,33.49
"2016-08-15 04:20:00",248775,0.281,119,17.91,100,0,0,859.3271,0,-2.929,3.109,197,22.32,22.3,0.05305357,0,42.7,50.77,31.43,33.49
"2016-08-15 04:30:00",248776,0.184,88.6,18.09,100,0,0,859.5251,0,-3.072,3.109,198,22.33,22.3,0.3865332,0,42.7,50.77,31.43,33.49
"2016-08-15 04:40:00",248777,0.072,93.5,18.22,100,0,0,859.5609,0,-3.279,3.111,214,22.38,22.32,0.41306,0,42.7,50.77,31.43,33.49
"2016-08-15 04:50:00",248778,0.212,135.7,18.1,100,0,0,859.3334,0,-3.748,3.116,203,22.31,22.27,0.2273725,0,42.7,50.77,31.43,33.49
"2016-08-15 05:00:00",248779,0.173,127.4,18.14,100,0,0,859.3292,0,-3.438,3.113,200,22.24,22.24,0.2538992,0,42.65,50.77,31.41,33.49
"2016-08-15 05:10:00",248780,0.105,66.36,18.09,100,0.153281,0,859.4555,0,-2.659,3.105,218,22.24,22.22,0.3031633,0.319,42.65,50.77,31.41,33.49
"2016-08-15 05:20:00",248781,0.352,113.4,18.07,100,2.008375,0,859.5693,0,-2.611,3.105,213,22.25,22.17,0.5191671,0.292,42.7,50.77,31.43,33.49
"2016-08-15 05:30:00",248782,0.387,135.1,17.98,100,8.560157,0,859.384,0,-2.897,3.108,203,22.29,22.15,1.493079,0.177,42.7,50.77,31.43,33.49
"2016-08-15 05:40:00",248783,0.213,146.5,18.06,100,17.90637,0,859.3187,0,-3.334,3.112,200,22.22,22.15,3.043002,0.17,42.7,50.77,31.43,33.49
"2016-08-15 05:50:00",248784,0.122,145.8,18.11,100,27.26438,0,859.3187,0,-3.176,3.11,218,22.16,22.15,4.29355,0.157,42.7,50.77,31.43,33.49
"2016-08-15 06:00:00",248785,0.073,102.7,18.33,96.6,13.82281,0,859.5019,0,-2.961,3.107,211,22.15,22.16,2.334357,0.17,42.65,50.77,31.41,33.49
"2016-08-15 06:10:00",248786,0.266,105.5,18.34,97.1,26.21106,0,859.5524,0,-3.112,3.108,200,22.15,22.18,4.009334,0.153,42.7,50.77,31.43,33.49
"2016-08-15 06:20:00",248787,0.019,130,18.4,98.8,22.35152,0,859.5714,0,-3.01,3.107,219,22.16,22.2,3.266584,0.146,42.7,50.77,31.43,33.49
"2016-08-15 06:30:00",248788,0.258,131.1,18.43,98.7,52.97236,0,859.4177,0,-2.755,3.105,245,22.17,22.19,7.988352,0.15,42.7,50.77,31.43,33.49
"2016-08-15 06:40:00",248789,0.581,130.1,18.54,98.9,161.177,0,859.3439,0,-2.454,3.1,278,22.16,22.19,25.49982,0.157,42.7,50.72,31.43,33.47
"2016-08-15 06:50:00",248790,0.71,128.1,18.91,93.5,171.0027,0,859.3987,0,-2.915,3.104,258,22.1,22.19,26.21226,0.153,42.7,50.72,31.43,33.47
"2016-08-15 07:00:00",248791,0.509,128.1,18.94,93.6,118.0107,0,859.5061,0,-3.329,3.108,214,22.03,22.19,17.28789,0.146,42.7,50.77,31.43,33.49
"2016-08-15 07:10:00",248792,0.475,126.3,18.82,94.4,79.84371,0,859.5419,0,-2.939,3.104,208,22.03,22.1,10.92146,0.136,42.7,50.77,31.43,33.49
"2016-08-15 07:20:00",248793,0.528,126,18.94,95.8,96.16225,0,859.4766,0,-3.042,3.105,217,22.04,22.05,13.53245,0.14,42.7,50.72,31.43,33.47
"2016-08-15 07:30:00",248794,0.169,144.7,18.91,96.1,70.85122,0,859.4977,0,-2.979,3.103,239,22.06,22.06,9.598907,0.135,42.65,50.72,31.41,33.47
"2016-08-15 07:40:00",248795,0.371,131.6,19.18,94.7,180.5297,0,859.5735,0,-3.488,3.107,218,22.05,22.06,27.65607,0.152,42.7,50.72,31.43,33.47
"2016-08-15 07:50:00",248796,0.214,133.6,19.58,90.8,169.6035,0,859.6303,0,-4.906,3.12,211,22.02,22.06,24.84423,0.146,42.7,50.72,31.43,33.47
"2016-08-15 08:00:00",248797,0.237,152.2,19.36,92.3,73.24476,0,859.6852,0,-2.134,3.093,324,22.03,22.06,8.715944,0.114,42.7,50.72,31.43,33.47
"2016-08-15 08:10:00",248798,0.157,100.4,19.31,94.4,55.24406,0,859.8157,0,-2.971,3.102,202,22.05,22.06,5.979896,0.108,42.65,50.72,31.41,33.47
"2016-08-15 08:20:00",248799,0.084,110,19.28,95.2,56.03012,0,859.8074,0,-4.236,3.114,219,22.06,22.01,6.449799,0.115,42.7,50.72,31.43,33.47
"2016-08-15 08:30:00",248800,0.243,114,19.12,98,52.81515,0,859.6494,0,-3.09,3.105,197,22.06,22.05,6.726435,0.125,42.7,50.72,31.43,33.47
"2016-08-15 08:40:00",248801,0.312,140.6,18.84,100,68.86642,0,859.6051,0,-3.042,3.105,189,22.06,22.02,9.481431,0.138,42.7,50.72,31.43,33.47
"2016-08-15 08:50:00",248802,0.189,88.2,18.85,100,65.89906,0,859.624,0,-2.994,3.105,175,22.06,21.98,8.803103,0.132,42.7,50.72,31.43,33.47
"2016-08-15 09:00:00",248803,0.185,98.3,18.61,100,27.51591,0,859.5756,0,-2.644,3.103,189,22.06,21.98,3.440903,0.125,42.7,50.72,31.43,33.47
"2016-08-15 09:10:00",248804,0.642,128.8,18.42,100,50.512,0,859.584,0,-2.962,3.107,195,22.06,21.98,6.362639,0.126,42.7,50.72,31.43,33.47
"2016-08-15 09:20:00",248805,0.52,108.9,18.42,100,57.25637,0,859.78,0,-2.803,3.105,181,22.06,21.98,7.446448,0.13,42.7,50.72,31.43,33.47
"2016-08-15 09:30:00",248806,0.339,109.5,18.45,100,57.44896,0,859.8137,0,-2.7,3.104,191,22.06,21.98,7.711716,0.134,42.7,50.72,31.43,33.47
"2016-08-15 09:40:00",248807,0.218,109.6,18.53,100,79.09695,0,859.8242,0,-2.97,3.105,172,22.06,21.99,10.40608,0.132,42.7,50.72,31.43,33.47
"2016-08-15 09:50:00",248808,0.135,71.04,18.87,100,122.1454,0,859.8979,0,-2.771,3.101,186,22.06,21.99,14.85121,0.121,42.65,50.72,31.41,33.47
"2016-08-15 10:00:00",248809,0.097,95,18.81,100,53.68374,0,859.8516,0,-2.533,3.101,194,22.06,22.01,5.953369,0.111,42.7,50.72,31.43,33.47
"2016-08-15 10:10:00",248810,0.274,81.7,18.56,100,52.15486,1,859.959,0,-3.113,3.108,196,22.06,22.03,5.509993,0.106,42.7,50.72,31.43,33.47
"2016-08-15 10:20:00",248811,0.329,130.6,18.41,100,46.38128,1,859.86,0,-4.615,3.123,181,22.05,22.02,4.797559,0.104,42.7,50.72,31.43,33.47
"2016-08-15 10:30:00",248812,0.261,143.8,18.38,100,39.26746,0,859.8389,0,-2.755,3.105,210,22.05,21.96,4.464079,0.114,42.65,50.72,31.41,33.47
"2016-08-15 10:40:00",248813,0.219,92,18.41,100,48.21279,0.5,859.86,0,-3.32,3.11,204,22.05,21.91,5.434202,0.113,42.7,50.72,31.43,33.47
"2016-08-15 10:50:00",248814,0.302,67.35,18.43,100,45.65024,0,859.8242,0,-3.113,3.108,196,22.06,21.9,5.309147,0.117,42.7,50.72,31.43,33.47
"2016-08-15 11:00:00",248815,0.368,97.4,18.5,100,87.82218,0,859.8242,0,-3.336,3.109,215,22.02,21.89,10.09913,0.114,42.7,50.72,31.43,33.47
"2016-08-15 11:10:00",248816,0.19,78.87,18.57,100,52.94485,0,859.8242,0,-2.485,3.101,236,22.02,21.89,5.998843,0.113,42.7,50.72,31.43,33.47
"2016-08-15 11:20:00",248817,0.174,81.8,18.62,100,57.88914,0.5,859.8242,0,-1.865,3.095,275,22.02,21.89,6.427062,0.111,42.7,50.72,31.43,33.47
"2016-08-15 11:30:00",248818,0.143,99.6,18.53,100,46.00004,0,859.7947,0,-2.612,3.102,253,22.02,21.9,5.153776,0.112,42.76,50.72,31.44,33.47
"2016-08-15 11:40:00",248819,0.28,118.4,18.46,100,38.79583,0,859.5882,0,-3.216,3.109,207,22,21.92,4.028282,0.104,42.76,50.72,31.44,33.47
"2016-08-15 11:50:00",248820,0.276,108.5,18.43,100,24.28915,0.5,859.5777,0,-2.493,3.102,257,22.01,21.96,2.459412,0.101,42.76,50.72,31.44,33.47
"2016-08-15 12:00:00",248821,0.099,68.68,18.4,100,17.37185,1.5,859.6599,0,-2.573,3.103,188,21.98,21.97,1.830348,0.106,42.76,50.72,31.44,33.47
"2016-08-15 12:10:00",248822,0.308,66.18,18.42,100,24.9966,1.5,859.5777,0,-2.906,3.106,192,21.98,21.96,2.679205,0.107,42.76,50.72,31.44,33.47
"2016-08-15 12:20:00",248823,0.305,106.6,18.4,100,33.01045,4,859.6093,0,-3.534,3.113,180,21.98,21.91,3.266584,0.1,43.22,50.77,31.56,33.49
"2016-08-15 12:30:00",248824,0.637,111.4,18.24,100,47.26952,2.5,859.7294,0,-3.359,3.112,187,21.92,21.9,4.721768,0.1,44.09,50.77,31.79,33.49
"2016-08-15 12:40:00",248825,0.298,165.6,18,100,44.23534,0.5,859.8052,0,-3.239,3.112,179,21.85,21.88,4.407236,0.1,45.5,50.77,32.16,33.49
"2016-08-15 12:50:00",248826,0.478,138.1,17.88,100,70.37565,0.5,859.662,0,-3.659,3.117,186,21.79,21.86,7.408553,0.105,46.24,50.77,32.35,33.49
"2016-08-15 13:00:00",248827,0.087,148.6,17.79,100,69.56209,0,859.5714,0,-3.293,3.113,189,21.78,21.81,7.643504,0.11,46.61,50.72,32.44,33.47
"2016-08-15 13:10:00",248828,0.003,135.1,17.98,100,64.1776,0.5,859.5229,0,-3.803,3.117,194,21.73,21.8,7.010651,0.109,46.82,50.77,32.5,33.49
"2016-08-15 13:20:00",248829,0.158,326.7,17.96,100,62.79414,0,859.3187,0,-3.342,3.113,181,21.71,21.8,6.976545,0.11,47.04,50.77,32.55,33.49
"2016-08-15 13:30:00",248830,0.073,56.79,18.14,100,122.9629,0.5,859.304,0,-3.272,3.11,181,21.71,21.8,14.55563,0.118,47.14,50.83,32.58,33.5
"2016-08-15 13:40:00",248831,0.41,124.5,18.3,100,115.173,0,859.0469,0,-3.383,3.112,190,21.71,21.8,13.75603,0.12,47.3,50.83,32.62,33.5
"2016-08-15 13:50:00",248832,0.612,151.4,18.04,100,119.7204,0,858.6552,0,-3.183,3.111,186,21.7,21.8,14.78679,0.123,47.46,50.88,32.66,33.52
"2016-08-15 14:00:00",248833,0.252,142.2,18.04,100,105.4023,0,858.3498,0,-3.072,3.109,189,21.67,21.8,12.87686,0.122,47.57,50.94,32.69,33.53
"2016-08-15 14:10:00",248834,0.161,98.1,18.09,100,83.40454,0.5,858.2867,0,-3.128,3.11,186,21.68,21.82,10.04228,0.12,47.68,50.94,32.71,33.53
"2016-08-15 14:20:00",248835,0.019,90.9,18.19,100,76.30645,0,858.3077,0,-3.121,3.109,195,21.69,21.85,9.238901,0.121,47.79,50.99,32.74,33.54
"2016-08-15 14:30:00",248836,0.097,131,18.32,100,84.43428,0,858.5352,0,-3.319,3.11,185,21.7,21.87,10.6524,0.126,47.84,51.05,32.76,33.56
"2016-08-15 14:40:00",248837,0.258,73.77,18.38,100,119.8854,0,858.6953,0,-3.272,3.11,185,21.69,21.87,15.67733,0.13,47.89,51.05,32.77,33.56
"2016-08-15 14:50:00",248838,0.286,47.45,18.42,100,210.6632,0,858.6278,0,-3.726,3.113,185,21.66,21.85,27.51965,0.131,47.95,51.1,32.78,33.57
"2016-08-15 15:00:00",248839,0.537,136.9,18.47,100,182.6756,0,858.7774,0,-3.86,3.115,184,21.65,21.84,23.24504,0.127,48,51.16,32.8,33.58
"2016-08-15 15:10:00",248840,0.242,183.7,18.46,100,262.4093,0,858.7479,0,-3.201,3.107,189,21.65,21.8,34.54546,0.132,48,51.27,32.8,33.61
"2016-08-15 15:20:00",248841,0.209,285.3,19.01,100,270.6904,0,858.8132,0,-3.313,3.106,176,21.68,21.77,36.14464,0.134,48.05,51.33,32.81,33.62
"2016-08-15 15:30:00",248842,0.208,359.4,19.33,98.8,243.9763,0,858.8132,0,-3.488,3.107,174,21.71,21.74,31.71088,0.129,48.05,51.38,32.81,33.64
"2016-08-15 15:40:00",248843,0.571,236.8,19.21,98.3,255.0007,0,858.8448,0,-3.495,3.108,194,21.71,21.75,33.18122,0.13,48.05,51.44,32.81,33.65
"2016-08-15 15:50:00",248844,0.47,40.13,19.24,92.6,160.7957,0,858.824,0,-3.624,3.109,190,21.71,21.73,20.32331,0.125,48.11,51.49,32.82,33.66
"2016-08-15 16:00:00",248845,0.203,280.4,19.33,94.6,100.1397,0,858.8214,0,-3.695,3.109,186,21.71,21.71,13.86214,0.139,48.11,51.6,32.82,33.69
"2016-08-15 16:10:00",248846,0.411,229.2,19.21,100,76.69948,0,858.8694,0,-3.393,3.107,189,21.68,21.71,11.50884,0.15,48.11,51.6,32.82,33.69
"2016-08-15 16:20:00",248847,0.223,206.8,19.41,100,122.1454,0,859.051,0,-3.281,3.102,181,21.71,21.71,17.43947,0.14,48.16,51.71,32.84,33.72
"2016-08-15 16:30:00",248848,0.189,227.9,19.96,99.8,146.7293,0,859.0764,0,-4.125,3.109,187,21.8,21.71,20.25131,0.138,48.11,51.82,32.82,33.75
"2016-08-15 16:40:00",248849,0.196,118.9,20.13,99.2,125.7455,0,859.0891,0,-4.333,3.111,184,21.8,21.71,17.63652,0.136,48.16,51.88,32.84,33.76
"2016-08-15 16:50:00",248850,0.278,38.37,19.98,100,120.7698,0,859.1501,0,-4.333,3.111,186,21.78,21.71,16.38597,0.135,48.16,51.94,32.84,33.77
"2016-08-15 17:00:00",248851,0.086,240.2,20.11,100,107.3753,0,859.0996,0,-4.436,3.112,176,21.78,21.71,14.23731,0.126,48.16,52.05,32.84,33.8
"2016-08-15 17:10:00",248852,0.043,200.9,20.01,100,46.93544,0,859.1923,0,-4.03,3.109,193,21.86,21.71,4.835454,0.1,48.16,52.16,32.84,33.83
"2016-08-15 17:20:00",248853,0.029,85,19.8,100,72.80457,0,859.3292,0,-4.476,3.114,193,21.89,21.67,9.750489,0.131,48.11,52.21,32.82,33.84
"2016-08-15 17:30:00",248854,0.041,107,19.78,100,78.2716,0,859.403,0,-4.245,3.112,176,21.89,21.65,10.45155,0.133,48.11,52.27,32.82,33.85
"2016-08-15 17:40:00",248855,0.109,107.4,19.61,100,21.27855,0,859.3187,0,-4.228,3.113,193,21.89,21.66,1.477921,0.068,48.16,52.32,32.84,33.87
"2016-08-15 17:50:00",248856,0,0,19.2,100,18.10682,0,859.3187,0,-4.196,3.115,189,21.89,21.7,1.432446,0.079,48.16,52.44,32.84,33.89
"2016-08-15 18:00:00",248857,0.019,275.4,19.1,100,23.25549,0,859.4471,0,-3.83,3.111,189,21.89,21.65,2.88763,0.122,48.16,52.55,32.84,33.92
"2016-08-15 18:10:00",248858,0.02,137.8,19.11,100,21.96242,0,859.5714,0,-3.814,3.112,190,21.89,21.63,3.05816,0.138,48.16,52.55,32.84,33.92
"2016-08-15 18:20:00",248859,0,0,18.78,100,7.506842,0,859.6072,0,-3.829,3.114,186,21.89,21.63,0.8791735,0.118,48.16,52.6,32.84,33.94
"2016-08-15 18:30:00",248860,0.029,166.3,18.46,100,3.710187,0,859.5756,0,-3.788,3.115,186,21.89,21.63,0.6783278,0.195,48.11,52.66,32.82,33.95
"2016-08-15 18:40:00",248861,0,0,18.2,100,0.9039652,0,859.7147,0,-3.748,3.116,181,21.89,21.63,0.5608521,0.617,48.11,52.77,32.82,33.98
"2016-08-15 18:50:00",248862,0.214,176.4,17.87,100,0,0,859.8242,0,-3.865,3.119,190,21.89,21.65,0.2917947,0,48.16,52.77,32.84,33.98
"2016-08-15 19:00:00",248863,0.301,179.6,17.48,100,0,0,859.8242,0,-3.831,3.121,190,21.89,21.7,0.2273725,0,48.11,52.88,32.82,34
"2016-08-15 19:10:00",248864,0.445,181.7,17.19,100,0,0,859.9105,0,-3.813,3.122,191,21.93,21.71,0.2349515,0,48.11,52.88,32.82,34
"2016-08-15 19:20:00",248865,0.497,186.6,16.86,100,0,0,860.098,0,-3.826,3.124,194,21.97,21.71,0.2766365,0,48.16,52.94,32.84,34.02
"2016-08-15 19:30:00",248866,0.48,192.2,16.72,100,0,0,860.2875,0,-3.85,3.124,190,21.91,21.71,0.4736926,0,48.11,53,32.82,34.03
"2016-08-15 19:40:00",248867,0.445,187,16.64,100,0,0,860.3297,0,-3.802,3.124,192,21.85,21.71,0.5419043,0,48.11,53.05,32.82,34.04
"2016-08-15 19:50:00",248868,0.47,187,16.59,100,0,0,860.4792,0,-3.627,3.123,183,21.8,21.71,0.5305358,0,48.11,53.11,32.82,34.06
"2016-08-15 20:00:00",248869,0.429,194.1,16.57,100,0,0,860.5634,0,-3.833,3.125,193,21.84,21.71,0.5835893,0,48.05,53.11,32.81,34.06
"2016-08-15 20:10:00",248870,0.535,188.3,16.45,100,0,0,860.5445,0,-3.761,3.125,197,21.84,21.71,0.4774822,0,48.05,53.16,32.81,34.07
"2016-08-15 20:20:00",248871,0.391,183.4,16.53,100,0,0,860.5676,0,-3.685,3.121,184,21.79,21.69,0.6896964,0,48.11,53.16,32.82,34.07
"2016-08-15 20:30:00",248872,0.253,183.5,17.03,100,0,0,860.574,0,-3.82,3.123,189,21.73,21.7,1.026966,0,48.11,53.22,32.82,34.08
"2016-08-15 20:40:00",248873,0.444,183.1,16.8,100,0,0,860.614,0,-3.7,3.123,194,21.73,21.7,0.4812717,0,48.05,53.28,32.81,34.1
"2016-08-15 20:50:00",248874,0.419,187,16.76,100,0,0,860.6119,0,-3.748,3.123,187,21.74,21.69,0.5343253,0,48.05,53.28,32.81,34.1
"2016-08-15 21:00:00",248875,0.108,189.7,16.94,100,0,0,860.6393,0,-3.946,3.124,193,21.71,21.69,0.7579082,0,48.11,53.33,32.82,34.11
"2016-08-15 21:10:00",248876,0.078,189.3,16.79,100,0,0,860.5823,0,-3.765,3.122,199,21.65,21.7,0.602537,0,48.05,53.33,32.81,34.11
"2016-08-15 21:20:00",248877,0.148,182.7,16.76,100,0,0,860.5823,0,-3.87,3.127,199,21.7,21.69,0.6593801,0,48.11,53.39,32.82,34.13
"2016-08-15 21:30:00",248878,0.401,186.9,16.17,100,0,0,860.5571,0,-3.979,3.129,196,21.69,21.71,0.1061071,0,48.11,53.45,32.82,34.14
"2016-08-15 21:40:00",248879,0.139,200.1,16.07,100,0,0,860.4602,0,-3.834,3.129,200,21.62,21.73,0.4964299,0,48.11,53.45,32.82,34.14
"2016-08-15 21:50:00",248880,0.324,189.6,15.82,100,0,0,860.517,0,-3.779,3.128,199,21.61,21.72,0.4547449,0,48.11,53.45,32.82,34.14
"2016-08-15 22:00:00",248881,0.163,189.4,16.04,100,0,0,860.5823,0,-3.852,3.128,193,21.59,21.68,1.004228,0,48.11,53.45,32.82,34.14
"2016-08-15 22:10:00",248882,0.225,175.4,15.89,100,0,0,860.5823,0,-3.834,3.129,198,21.5,21.65,0.602537,0,48.11,53.45,32.82,34.14
"2016-08-15 22:20:00",248883,0.193,180.6,15.85,100,0,0,860.6266,0,-3.677,3.127,187,21.48,21.63,0.735171,0,48.11,53.5,32.82,34.15
"2016-08-15 22:30:00",248884,0.405,182.4,15.93,100,0,0,860.5823,0,-3.423,3.125,198,21.53,21.63,0.7238023,0,48.11,53.5,32.82,34.15
"2016-08-15 22:40:00",248885,0.289,184.8,15.8,100,0,0,860.5844,0,-3.362,3.123,207,21.45,21.61,0.5760102,0,48.05,53.56,32.81,34.17
"2016-08-15 22:50:00",248886,0.251,174.1,16.25,100,0,0,860.6076,0,-3.677,3.127,190,21.39,21.62,0.9132794,0,48.05,53.56,32.81,34.17
"2016-08-15 23:00:00",248887,0.286,186.8,16.34,100,0,0,860.5823,0,-3.597,3.122,189,21.41,21.62,1.087598,0,48.11,53.56,32.82,34.17
"2016-08-15 23:10:00",248888,0.001,151.5,16.91,100,0,0,860.5887,0,-3.892,3.123,206,21.36,21.63,1.129283,0,48.05,53.61,32.81,34.18
"2016-08-15 23:20:00",248889,0.139,172.5,16.75,100,0,0,860.6119,0,-3.76,3.125,199,21.31,21.63,0.6404324,0,48.05,53.61,32.81,34.18
"2016-08-15 23:30:00",248890,0.452,178.7,16.2,100,0,0,860.6055,0,-3.622,3.126,202,21.34,21.63,0.4357972,0,48.11,53.61,32.82,34.18
"2016-08-15 23:40:00",248891,0.294,193,15.99,100,0,0,860.574,0,-3.567,3.125,201,21.28,21.62,0.5343253,0,48.05,53.67,32.81,34.19
"2016-08-15 23:50:00",248892,0.312,197.8,15.93,100,0,0,860.5445,0,-3.526,3.126,202,21.25,21.61,0.5684311,0,48.11,53.67,32.82,34.19
